Flag for U.S.A. Weather past 2 weeks in New Orleans, Louisiana, U.S.A.

Now
48 °F

Sunny.


Feels Like: 42 °F
Forecast: 45 / 64 °F
Wind: 15 mph from East

Location: Lakefront Airport


UV Index: 7 (High)

Visibility: 10 mi


Pressure: 30.22 "Hg

Humidity: 63%

Dew point: 36 °F

Location of New OrleansLocation

Historic Weather in New Orleans

°F

New Orleans temperature yesterday

Maximum temperature yesterday: 61 °F (at 3:53 PM)
Minimum temperature yesterday: 48 °F (at 8:53 AM)
Average temperature yesterday: 55 °F

Past Weeks' High & Low Weather Summary

 TemperatureHumidityPressure
High82 °F (Apr 13, 12:53 PM)100% (Apr 6, 3:53 AM)30.25 "Hg (Apr 6, 3:53 AM)
Low48 °F (Apr 15, 8:53 AM)36% (Apr 15, 4:53 PM)29.64 "Hg (Apr 7, 6:53 AM)
Average67 °F76%29.99 "Hg
* Reported Apr 1 6:53 AM — Apr 16 6:53 AM, New Orleans, Weather by CustomWeather, © 2014

Note: Actual official high and low records may vary slightly from our data, if they occured in-between our weather recording intervals... More about our weather records

Advertising

Historic Weather Conditions — Data for Previous 24 hours

 ConditionsComfort  
Time TempWeatherWind HumidityBarometerVisibility
6:53 AM
Apr 16
48 °FClear.17 mph59%30.20 "Hg10 mi
5:53 AM49 °FClear.18 mph59%30.17 "Hg10 mi
4:53 AM49 °FClear.22 mph61%30.16 "Hg10 mi
3:53 AM50 °FClear.23 mph61%30.16 "Hg10 mi
2:53 AM50 °FClear.21 mph61%30.16 "Hg10 mi
1:53 AM51 °FClear.22 mph63%30.16 "Hg10 mi
12:53 AM52 °FClear.25 mph59%30.16 "Hg10 mi
11:53 PM
Apr 15
53 °FClear.26 mph55%30.16 "Hg10 mi
10:53 PM54 °FClear.26 mph47%30.18 "Hg10 mi
9:53 PM55 °FClear.22 mph45%30.17 "Hg10 mi
8:53 PM56 °FClear.21 mph42%30.15 "Hg10 mi
7:53 PM57 °FSunny.20 mph41%30.12 "Hg10 mi
6:53 PM59 °FSunny.20 mph36%30.10 "Hg10 mi
5:53 PM60 °FSunny.17 mph39%30.09 "Hg10 mi
4:53 PM61 °FSunny.20 mph36%30.06 "Hg10 mi
3:53 PM61 °FSunny.20 mph38%30.06 "Hg10 mi
2:53 PM59 °FSunny.16 mph42%30.09 "Hg10 mi
1:53 PM59 °FSunny.23 mph49%30.08 "Hg10 mi
12:53 PM56 °FSunny.22 mph58%30.10 "Hg10 mi
11:53 AM53 °FPassing clouds.24 mph61%30.12 "Hg10 mi
10:53 AM49 °FOvercast.29 mph71%30.13 "Hg10 mi
9:53 AM48 °FOvercast.32 mph77%30.11 "Hg10 mi
8:53 AM48 °FOvercast.28 mph80%30.08 "Hg10 mi
Weather by CustomWeather, © 2014

See weather overview